Temp
83 96 98 96 80 82 79 85 93 89 90 96 99 91 80 82 73 60 75 80 97 92 86 86 81 81 81 81 81 80 80 80 80 80 80 79 80 80 80 80 80 81 82 82 82 82 82 82 82
90 95 99 91 77 74 74 88 86 90 94 98 99 94 86 82 86 74 73 96 97 92 89 86 81 81 81 80 80 80 80 80 80 80 80 80 80 80 80 80 80 81 82 82 82 82 82 82 82
87 96 88 85 80 75 77 87 88 94 97 96 94 94 89 86 94 92 98 99 98 93 90 83 80 81 81 81 80 80 80 80 80 80 80 80 80 80 80 80 80 81 82 82 82 82 82 82 81
95 96 93 78 77 84 86 88 91 92 95 98 97 87 93 98 96 100 102 101 97 96 89 81 80 80 80 80 80 80 80 80 80 80 80 80 80 79 79 80 80 81 82 82 82 82 81 81 81
98 90 71 75 79 86 90 91 93 91 92 93 95 86 88 97 102 104 104 105 99 92 88 84 80 80 80 81 80 80 79 79 79 80 80 80 79 79 79 79 80 80 81 81 81 81 81 80 80
88 90 72 71 79 87 89 92 92 92 93 92 92 91 89 99 99 103 104 98 106 98 94 85 80 80 80 80 80 79 79 79 79 79 79 79 79 79 79 79 79 80 80 81 81 80 80 79 79
85 83 78 81 80 82 86 92 89 89 90 89 93 86 91 95 99 104 106 107 108 104 91 90 86 82 80 80 79 79 79 79 79 78 79 79 79 79 79 79 79 79 79 80 80 80 79 79 79
92 87 80 84 82 80 86 89 92 90 87 96 96 85 82 92 100 103 104 106 107 108 99 95 85 88 84 85 80 79 79 79 78 78 78 78 79 79 78 78 78 79 79 79 79 79 79 79 78
97 79 77 82 83 83 90 86 93 94 89 92 93 92 94 98 100 98 98 101 104 106 105 106 91 84 78 79 83 79 79 79 78 78 78 78 80 82 82 80 80 78 79 78 78 78 78 78 78
87 80 80 87 87 84 88 86 88 87 89 89 90 95 97 98 96 95 95 96 99 100 102 104 95 93 88 89 81 83 83 82 80 82 81 80 81 83 88 85 80 79 79 78 78 78 78 78 80
88 78 86 86 85 87 87 86 89 86 83 87 85 89 93 93 93 94 95 96 97 98 98 99 91 86 92 95 84 80 71 73 83 84 83 83 85 83 86 86 83 80 79 80 79 79 78 79 81
82 86 86 86 87 86 85 88 85 87 86 91 91 92 91 91 92 92 92 93 93 92 93 92 91 87 83 89 91 91 88 81 84 84 84 82 78 81 83 83 83 81 83 80 82 83 80 80 81
84 84 86 86 86 86 87 83 84 85 91 92 92 91 90 91 91 93 91 92 89 86 85 87 84 82 82 81 84 85 88 91 88 77 79 78 75 79 78 81 82 84 84 82 81 82 83 83 84
86 85 86 86 87 86 82 83 85 88 92 89 89 89 90 90 91 90 89 86 85 84 84 84 82 80 81 80 80 81 83 86 87 85 81 78 79 77 83 82 80 81 82 84 82 81 80 81 85
87 79 83 84 85 82 85 77 82 89 91 87 88 89 89 89 91 87 86 85 84 83 81 79 80 81 78 79 80 81 85 90 86 88 85 87 83 80 82 82 80 81 80 80 80 80 80 78 81
80 80 74 83 85 84 81 71 85 90 88 86 88 88 87 88 88 86 86 85 83 81 79 79 82 79 79 78 79 81 82 84 87 87 86 84 81 82 80 80 80 82 79 79 79 79 78 76 74
80 73 75 79 88 84 81 74 85 90 88 85 86 87 86 86 87 84 86 84 83 81 78 78 78 78 77 77 78 78 79 80 84 86 85 82 81 82 81 82 81 80 80 78 79 78 77 76 76
69 71 74 73 82 82 78 76 82 86 86 85 86 86 84 83 84 84 85 85 84 81 79 77 77 75 76 77 77 79 79 79 83 85 85 85 83 80 76 82 80 80 79 78 78 76 77 75 76
75 73 72 77 83 78 75 75 79 83 84 84 84 83 82 82 85 86 85 85 83 82 80 77 74 73 74 77 76 77 77 80 81 83 82 84 86 85 81 82 80 79 77 77 77 74 73 74 76
75 72 72 76 80 75 73 72 78 82 82 82 80 80 80 81 82 83 84 83 82 80 80 77 75 73 73 75 73 76 75 76 79 82 81 83 84 83 83 81 80 79 76 76 76 74 72 75 74
73 71 69 68 73 76 73 69 74 81 82 81 80 80 81 80 79 80 81 81 81 79 80 77 75 73 72 73 73 75 76 76 77 80 80 82 78 76 72 79 79 78 78 75 75 75 73 69 72
66 76 72 69 65 58 72 56 70 76 76 78 79 79 80 80 81 81 80 80 80 80 82 77 76 73 73 72 71 69 73 72 76 79 82 78 78 70 66 70 79 76 71 70 74 75 73 69 68
68 74 70 69 66 65 67 62 69 75 73 77 79 80 80 82 81 79 80 80 82 80 76 74 73 73 72 71 70 71 70 73 76 76 74 72 68 64 68 67 63 62 62 61 65 69 70 69 67
77 71 71 70 68 58 66 62 64 69 70 75 78 79 79 80 79 80 80 80 78 77 76 75 74 73 71 71 70 68 67 68 70 71 73 66 67 66 68 68 65 64 64 65 63 67 69 69 68
73 64 53 51 53 53 65 60 59 68 71 72 71 73 74 75 76 76 77 77 75 74 74 71 70 70 70 69 68 68 65 65 67 68 67 68 65 66 68 69 65 65 64 66 65 68 71 71 69
67 64 54 43 45 50 63 55 55 70 72 72 70 68 65 63 60 63 67 66 75 74 70 68 63 58 62 70 67 66 66 63 63 67 68 68 67 64 66 69 70 67 67 68 69 69 69 68 67
65 58 69 56 58 52 58 64 71 70 69 69 66 65 63 63 62 64 62 61 74 72 67 65 63 61 68 68 68 66 63 62 62 64 67 66 66 68 68 69 68 68 67 66 64 66 64 62 62
68 72 55 56 41 40 52 54 57 61 63 66 66 65 65 64 64 65 65 57 59 69 70 65 63 64 69 70 68 67 64 62 63 63 64 66 66 64 65 65 66 64 63 61 60 61 60 59 59
65 62 63 60 55 44 42 49 64 63 65 61 63 66 64 63 64 64 61 59 56 55 71 68 69 69 68 68 68 66 64 62 62 60 61 64 63 62 63 62 62 60 59 58 58 57 57 55 54
67 61 60 47 46 51 46 45 69 68 66 65 65 65 64 64 63 64 60 60 56 61 68 70 68 68 69 70 68 66 66 63 61 60 59 59 59 59 59 59 58 57 56 55 55 54 53 52 51
MSLP
1008.02 1006.78 1006.03 1004.90 1004.17 1001.71 999.27 997.87 997.55 997.43 997.62 998.42 998.60 999.28 1001.73 1003.01 1004.41 1007.10 1006.31 1006.16 1004.38 1005.70 1007.28 1006.75 1006.47 1006.87 1007.65 1007.92 1008.33 1008.61 1008.83 1009.05 1009.32 1009.59 1009.89 1010.11 1010.34 1010.63 1010.91 1011.13 1011.29 1011.46 1011.60 1011.89 1012.01 1012.14 1012.27 1012.27 1012.35
1007.84 1006.62 1005.08 1004.11 1002.74 1000.30 999.97 998.44 998.43 998.51 998.85 998.81 998.57 999.40 1001.12 1001.97 1003.24 1006.02 1006.21 1004.67 1004.78 1006.22 1007.08 1006.79 1006.91 1007.24 1007.89 1008.10 1008.47 1008.69 1008.79 1009.05 1009.42 1009.76 1010.01 1010.28 1010.49 1010.76 1011.01 1011.24 1011.42 1011.61 1011.71 1011.80 1012.01 1012.12 1012.21 1012.35 1012.41
1008.04 1006.64 1005.18 1003.10 1001.54 999.90 999.74 999.68 999.62 999.16 999.22 999.29 999.35 1000.67 1001.83 1002.35 1002.27 1003.41 1003.64 1004.25 1004.93 1005.99 1006.08 1006.73 1007.42 1007.64 1008.19 1008.36 1008.65 1008.79 1008.84 1009.04 1009.38 1009.71 1009.93 1010.19 1010.53 1010.84 1011.12 1011.33 1011.46 1011.54 1011.71 1011.84 1011.99 1012.18 1012.26 1012.37 1012.46
1006.51 1005.05 1004.31 1003.02 1001.00 1000.04 1000.03 1000.32 1000.42 999.65 999.47 999.71 999.92 1001.16 1002.56 1002.52 1002.40 1002.59 1003.12 1003.48 1003.96 1004.85 1006.03 1006.87 1007.48 1007.78 1008.24 1008.41 1008.68 1008.78 1008.83 1008.97 1009.30 1009.60 1009.90 1010.13 1010.44 1010.80 1011.12 1011.34 1011.48 1011.59 1011.66 1011.75 1011.91 1012.10 1012.24 1012.39 1012.48
1005.80 1005.19 1004.64 1003.05 1001.57 1000.38 1000.54 1000.94 1000.82 1000.19 1000.13 1000.39 1000.60 1001.79 1002.78 1003.29 1003.21 1002.62 1002.42 1002.41 1003.64 1004.80 1005.47 1006.65 1007.51 1007.83 1008.16 1008.30 1008.50 1008.56 1008.67 1008.88 1009.17 1009.43 1009.74 1010.01 1010.34 1010.66 1010.95 1011.16 1011.42 1011.54 1011.57 1011.67 1011.75 1011.87 1012.10 1012.27 1012.41
1005.06 1004.43 1003.90 1002.44 1000.76 1000.73 1000.96 1001.52 1001.24 1001.18 1001.01 1001.39 1001.37 1001.60 1002.76 1003.60 1003.70 1003.15 1002.75 1003.01 1002.92 1003.29 1004.75 1005.56 1006.48 1007.25 1008.20 1008.48 1008.52 1008.45 1008.53 1008.71 1009.01 1009.30 1009.61 1009.93 1010.26 1010.52 1010.74 1010.98 1011.21 1011.36 1011.52 1011.63 1011.72 1011.80 1011.95 1012.08 1012.19
1004.58 1003.48 1002.54 1001.31 1000.77 1001.04 1001.37 1002.16 1001.94 1002.02 1001.59 1002.18 1002.68 1002.37 1003.19 1003.86 1004.29 1003.72 1003.27 1002.75 1002.48 1003.18 1005.07 1005.42 1006.02 1007.39 1008.44 1009.16 1009.28 1008.85 1008.71 1008.78 1008.96 1009.25 1009.58 1009.84 1010.09 1010.36 1010.59 1010.79 1010.94 1011.16 1011.34 1011.45 1011.58 1011.72 1011.88 1011.97 1012.02
1003.74 1003.26 1002.18 1000.88 1000.29 1001.06 1002.08 1002.33 1002.58 1002.84 1002.75 1003.06 1003.12 1002.94 1003.97 1004.40 1004.29 1003.92 1003.65 1003.42 1002.97 1002.82 1004.12 1005.15 1006.16 1007.64 1008.15 1009.43 1009.36 1008.58 1008.79 1008.75 1008.92 1009.14 1009.42 1009.69 1009.92 1010.09 1010.28 1010.41 1010.62 1010.88 1011.07 1011.22 1011.27 1011.31 1011.47 1011.60 1011.71
1003.51 1003.30 1001.84 1000.77 1000.41 1001.47 1002.32 1002.79 1002.82 1003.55 1003.55 1003.31 1003.74 1004.01 1004.45 1004.55 1004.52 1004.33 1003.94 1003.66 1003.25 1003.07 1003.57 1003.95 1005.77 1006.93 1006.64 1008.37 1008.44 1008.07 1007.46 1007.98 1008.31 1008.74 1009.15 1009.61 1009.64 1009.58 1009.63 1009.83 1009.95 1010.27 1010.64 1010.91 1011.09 1011.21 1011.30 1011.35 1011.30
1003.25 1002.39 1002.15 1002.25 1002.09 1002.36 1002.78 1003.62 1003.41 1003.55 1003.14 1003.30 1003.70 1004.11 1004.52 1004.65 1004.73 1004.64 1004.41 1004.08 1003.81 1003.81 1003.99 1004.33 1005.45 1006.07 1006.39 1006.75 1007.54 1007.62 1008.67 1008.85 1007.58 1007.64 1007.31 1008.39 1009.13 1009.14 1008.83 1008.79 1008.99 1009.41 1009.97 1010.32 1010.59 1010.83 1011.00 1011.12 1010.96
1002.83 1003.03 1002.78 1003.26 1003.89 1003.75 1003.52 1003.85 1003.98 1003.89 1003.61 1004.01 1004.41 1004.87 1005.01 1005.19 1004.92 1004.84 1004.77 1004.74 1004.70 1004.85 1004.94 1005.10 1005.45 1006.28 1006.44 1006.16 1006.64 1006.56 1007.76 1007.42 1007.79 1008.14 1007.40 1007.29 1008.23 1009.05 1008.92 1008.63 1008.74 1009.19 1009.55 1009.71 1009.85 1010.09 1010.39 1010.26 1010.01
1003.09 1003.70 1003.74 1003.87 1004.30 1004.28 1004.17 1004.23 1004.23 1004.09 1004.23 1004.60 1005.11 1005.31 1005.49 1005.26 1005.16 1005.19 1005.31 1005.50 1005.76 1006.11 1006.17 1006.14 1006.24 1006.52 1006.95 1006.99 1006.59 1006.05 1006.07 1006.81 1007.15 1006.95 1006.25 1007.35 1008.61 1008.69 1008.44 1008.53 1008.33 1008.50 1008.30 1008.86 1008.86 1008.83 1008.99 1009.04 1009.15
1003.37 1003.95 1004.29 1004.57 1004.76 1004.81 1004.90 1004.84 1004.42 1004.38 1004.28 1004.90 1005.34 1005.45 1005.43 1005.46 1005.49 1005.70 1006.02 1006.38 1006.92 1007.24 1007.51 1007.43 1007.37 1007.27 1007.23 1007.26 1006.95 1006.39 1005.81 1005.36 1005.82 1006.58 1007.03 1006.78 1007.86 1008.34 1008.35 1008.06 1008.38 1007.89 1007.52 1007.95 1008.21 1008.33 1008.38 1008.18 1008.35
1004.06 1004.16 1004.15 1004.54 1004.46 1004.90 1005.02 1004.74 1004.39 1004.03 1004.17 1004.86 1005.11 1005.22 1005.39 1005.61 1005.84 1006.33 1006.64 1007.26 1007.70 1008.00 1008.20 1008.30 1008.31 1008.02 1007.69 1007.36 1007.12 1006.89 1006.29 1005.81 1005.36 1005.31 1005.68 1005.67 1007.14 1007.25 1007.75 1008.51 1008.43 1007.78 1007.53 1007.50 1007.75 1007.96 1008.12 1008.01 1007.59
1004.31 1004.41 1004.17 1004.23 1004.42 1004.72 1004.96 1004.54 1003.18 1003.50 1004.00 1004.64 1004.76 1004.77 1005.26 1005.84 1006.00 1006.78 1007.55 1008.02 1008.37 1008.68 1008.87 1008.92 1008.62 1008.31 1008.13 1007.80 1007.37 1007.02 1006.58 1005.80 1005.40 1005.33 1004.87 1005.24 1005.73 1006.86 1007.19 1007.35 1007.77 1007.61 1007.38 1007.41 1007.60 1007.77 1007.87 1008.03 1007.84
1004.20 1003.96 1002.90 1003.33 1003.80 1004.19 1004.97 1003.99 1002.99 1003.29 1003.59 1003.89 1004.05 1004.43 1005.16 1005.87 1006.34 1007.29 1008.18 1008.57 1009.06 1009.36 1009.60 1009.52 1009.22 1008.84 1008.43 1008.12 1007.74 1007.19 1006.70 1006.18 1005.48 1004.86 1004.49 1004.43 1004.82 1005.35 1006.14 1006.63 1006.97 1007.03 1007.22 1007.36 1007.54 1007.53 1007.68 1007.81 1007.86
1003.41 1002.52 1002.55 1002.61 1002.80 1003.43 1003.84 1003.47 1003.14 1003.11 1002.97 1003.26 1003.66 1004.08 1004.95 1005.89 1006.65 1007.62 1008.44 1008.88 1009.36 1009.65 1009.93 1009.87 1009.64 1009.31 1008.84 1008.22 1007.70 1007.19 1006.69 1006.10 1005.37 1004.80 1004.34 1004.72 1004.73 1005.09 1005.64 1005.72 1005.87 1006.51 1006.89 1006.96 1007.06 1007.17 1007.35 1007.59 1007.58
1004.01 1003.69 1003.63 1003.38 1003.15 1003.28 1003.62 1003.63 1003.32 1003.14 1003.09 1003.04 1003.28 1003.94 1005.04 1006.14 1006.99 1007.82 1008.48 1008.95 1009.39 1009.68 1009.94 1009.98 1009.95 1009.70 1009.09 1008.31 1007.52 1006.79 1006.18 1005.69 1005.18 1004.45 1004.18 1004.01 1004.56 1004.72 1005.96 1005.07 1005.08 1005.96 1006.44 1006.67 1006.75 1006.84 1006.85 1007.20 1007.37
1005.07 1004.62 1004.16 1003.71 1003.46 1003.85 1003.92 1003.67 1003.45 1003.06 1002.69 1002.62 1003.13 1004.11 1005.38 1006.45 1007.21 1007.85 1008.44 1008.86 1009.24 1009.43 1009.63 1009.83 1009.89 1009.81 1009.43 1008.46 1007.77 1007.03 1006.26 1005.30 1004.58 1004.08 1003.67 1003.78 1003.85 1004.05 1004.39 1004.51 1004.89 1005.55 1006.01 1006.07 1006.26 1006.62 1006.89 1006.95 1006.83
1005.35 1004.91 1004.41 1004.30 1004.35 1004.87 1004.44 1003.82 1003.13 1002.38 1002.33 1003.03 1003.89 1004.91 1005.76 1006.50 1007.20 1007.87 1008.35 1008.73 1008.96 1009.21 1009.34 1009.57 1009.70 1009.73 1009.55 1009.08 1008.47 1007.18 1006.51 1005.66 1005.02 1004.23 1003.17 1003.23 1003.43 1003.75 1004.23 1004.08 1004.61 1004.98 1005.45 1005.73 1005.69 1006.12 1006.54 1006.64 1006.53
1005.54 1005.33 1005.54 1005.69 1005.53 1005.40 1004.40 1003.44 1002.72 1002.27 1002.63 1003.64 1004.50 1005.20 1005.94 1006.38 1007.08 1007.83 1008.29 1008.69 1008.90 1009.12 1009.11 1009.25 1009.43 1009.54 1009.58 1009.35 1008.49 1007.29 1006.09 1005.20 1004.49 1003.68 1002.94 1002.77 1003.05 1003.07 1003.60 1003.70 1004.31 1004.55 1004.86 1005.48 1005.76 1005.83 1006.12 1006.38 1006.49
1006.10 1006.28 1006.57 1006.46 1006.28 1005.49 1005.25 1003.37 1002.17 1002.04 1002.91 1003.20 1003.93 1004.79 1005.39 1006.09 1006.90 1007.67 1008.13 1008.52 1008.80 1008.79 1008.91 1009.26 1009.31 1009.56 1009.37 1009.51 1009.08 1007.95 1006.57 1005.51 1004.69 1003.95 1002.84 1002.79 1002.85 1003.68 1004.86 1006.48 1004.51 1004.25 1005.73 1006.42 1006.35 1006.15 1006.31 1006.09 1006.34
1007.14 1007.36 1007.51 1007.01 1006.21 1005.42 1004.34 1003.50 1002.47 1002.68 1002.51 1002.84 1003.67 1004.41 1005.37 1006.23 1006.86 1007.76 1008.17 1008.35 1008.73 1008.82 1009.25 1009.39 1009.78 1009.76 1009.68 1009.63 1009.62 1008.59 1007.48 1006.53 1005.29 1004.53 1004.32 1003.98 1003.95 1004.09 1004.12 1003.99 1005.06 1005.98 1006.54 1006.90 1007.53 1007.08 1006.69 1006.55 1006.38
1007.31 1007.60 1007.22 1006.63 1005.50 1004.87 1004.22 1004.54 1004.03 1003.57 1003.92 1003.94 1004.54 1005.38 1006.40 1006.89 1007.52 1008.12 1008.38 1008.63 1009.08 1009.63 1009.93 1010.04 1009.62 1010.05 1009.97 1009.73 1010.10 1009.28 1008.34 1007.45 1006.28 1005.20 1004.79 1004.68 1004.77 1003.83 1002.62 1005.46 1007.48 1006.10 1006.03 1005.52 1005.40 1006.47 1006.29 1006.05 1005.82
1007.56 1007.97 1007.47 1006.84 1006.18 1005.74 1005.72 1005.78 1006.47 1005.78 1005.97 1006.52 1006.96 1007.58 1008.30 1008.93 1009.19 1009.76 1009.50 1009.61 1010.28 1010.21 1010.50 1010.71 1011.08 1010.58 1010.37 1010.10 1010.55 1009.90 1009.20 1008.47 1007.58 1006.87 1006.29 1005.53 1004.85 1003.83 1002.31 1005.26 1006.36 1006.57 1006.30 1005.38 1005.73 1006.16 1005.60 1005.51 1005.41
1008.38 1008.63 1008.46 1007.84 1007.83 1007.31 1007.62 1006.50 1008.03 1007.75 1007.94 1008.34 1009.16 1009.92 1010.56 1011.54 1011.55 1013.12 1011.87 1012.36 1011.47 1010.97 1011.42 1011.59 1011.61 1011.55 1011.64 1010.08 1010.55 1010.45 1009.99 1009.48 1008.54 1007.67 1007.17 1006.97 1006.64 1006.09 1005.87 1006.68 1006.82 1006.55 1005.82 1006.16 1006.17 1005.86 1005.66 1005.49 1005.37
1008.81 1009.06 1008.95 1009.14 1009.46 1008.44 1007.64 1007.13 1006.67 1007.78 1008.49 1009.30 1010.15 1011.27 1011.95 1012.39 1012.96 1013.08 1013.59 1013.51 1011.99 1011.51 1011.73 1011.93 1011.83 1010.96 1010.97 1010.84 1010.80 1010.58 1010.55 1009.98 1009.01 1008.09 1007.65 1007.68 1007.47 1006.85 1006.90 1007.49 1007.06 1007.33 1006.82 1006.91 1006.67 1005.92 1005.93 1006.27 1005.84
1008.94 1009.06 1009.51 1010.18 1009.95 1009.12 1008.23 1007.97 1007.40 1007.85 1008.80 1009.80 1010.41 1011.49 1012.32 1013.22 1013.52 1013.59 1013.48 1013.74 1013.17 1012.41 1011.31 1011.86 1011.81 1011.41 1010.93 1010.74 1010.77 1010.68 1010.59 1010.48 1009.39 1008.25 1008.55 1007.97 1007.26 1006.80 1005.82 1006.50 1007.56 1007.61 1007.44 1007.50 1007.28 1006.89 1006.75 1006.43 1006.25
1008.72 1008.88 1009.43 1010.10 1010.75 1010.38 1009.52 1008.85 1008.94 1009.17 1009.19 1010.52 1011.26 1011.57 1012.76 1013.63 1013.74 1013.67 1014.03 1013.81 1013.25 1014.00 1012.11 1011.62 1011.55 1011.41 1010.98 1010.91 1010.81 1010.52 1010.54 1010.57 1009.76 1008.96 1009.70 1009.27 1008.59 1008.09 1007.58 1008.00 1008.15 1008.22 1008.22 1007.71 1007.50 1007.45 1007.38 1007.04 1006.83
1009.90 1010.21 1010.56 1010.93 1011.26 1011.35 1010.92 1009.56 1009.37 1009.16 1009.78 1010.71 1010.97 1011.53 1012.65 1013.21 1013.63 1013.94 1014.35 1014.19 1013.82 1013.17 1012.08 1011.80 1011.54 1011.44 1011.16 1010.45 1010.62 1010.63 1010.41 1010.58 1010.57 1010.26 1010.02 1009.31 1010.40 1009.75 1009.36 1009.47 1009.32 1008.97 1008.31 1008.28 1008.18 1008.30 1008.19 1007.75 1007.46
Wind_Speed
16 16 11 10 7 9 17 3 5 13 12 13 10 21 21 10 7 9 14 24 19 16 10 10 10 12 10 10 9 9 9 9 9 10 10 10 10 10 9 8 8 7 8 7 7 6 5 5 4
11 17 8 7 10 14 11 14 14 11 10 10 6 19 23 18 15 8 3 5 16 15 10 10 9 10 9 9 9 8 10 9 9 9 9 9 9 9 9 9 9 8 7 7 7 6 5 4 4
11 13 6 6 12 14 2 5 12 8 6 10 9 18 13 7 13 9 9 15 13 11 12 13 9 9 8 8 8 8 9 9 9 9 9 9 8 8 8 9 9 9 8 7 6 5 4 3 3
6 5 6 7 18 9 11 11 8 7 3 7 8 13 15 13 5 11 4 16 15 15 15 14 11 8 7 8 9 9 9 9 9 10 10 9 9 9 8 8 9 9 9 8 7 6 5 4 4
7 3 2 16 21 13 7 8 8 8 8 11 13 12 14 12 10 4 7 5 15 18 17 15 13 10 9 9 10 10 10 10 10 10 10 10 10 10 10 9 9 9 9 9 9 8 6 6 5
8 9 9 19 18 4 5 7 9 7 6 7 12 4 11 12 12 13 9 5 2 19 16 17 19 16 12 11 10 10 10 10 10 9 9 9 9 9 10 9 9 9 9 9 8 8 7 7 7
12 12 18 21 11 6 8 5 7 10 4 11 12 10 16 15 9 11 9 10 5 14 15 15 15 12 12 9 10 11 10 9 9 9 9 9 9 9 9 9 10 10 9 9 8 8 8 8 8
11 13 21 18 8 14 10 3 6 7 8 5 5 7 12 10 7 9 11 10 11 4 20 15 15 12 8 6 11 13 11 11 9 8 8 9 9 9 10 9 10 10 10 10 10 10 10 9 10
11 10 13 17 3 13 11 4 8 4 11 5 6 8 8 8 10 10 7 8 9 5 3 1 20 13 16 18 17 16 17 15 13 10 8 7 6 10 12 13 13 15 14 12 11 10 10 10 11
9 10 9 14 14 12 8 3 9 5 7 6 5 6 10 11 9 9 10 11 10 11 12 11 7 9 13 16 10 9 2 6 7 11 13 10 8 8 11 12 20 17 16 14 12 12 11 10 8
10 5 6 7 10 9 9 7 3 7 6 13 10 9 11 12 10 8 8 10 12 14 9 12 9 9 13 5 7 4 6 8 11 11 10 9 7 7 6 4 6 7 11 7 11 10 8 11 9
2 5 8 9 7 4 5 9 6 5 9 10 8 9 10 11 10 9 10 11 12 15 16 16 14 11 8 8 7 4 5 8 9 12 11 4 1 4 5 3 4 8 7 10 8 7 11 13 13
2 3 2 3 2 3 7 7 10 8 8 4 7 8 10 10 8 8 9 8 11 10 12 13 13 11 10 9 8 8 8 6 3 7 6 8 8 11 2 2 4 3 2 5 6 4 5 10 12
5 3 4 4 4 2 7 11 11 10 8 1 8 10 7 8 6 7 10 11 8 10 9 10 12 9 8 7 7 8 7 7 5 2 6 7 9 3 7 4 4 3 3 4 4 4 5 6 5
5 9 9 8 6 3 4 15 11 13 7 5 11 11 4 6 4 10 10 9 10 10 12 12 11 10 10 9 8 7 8 9 5 7 8 9 8 8 5 3 2 4 3 2 3 6 4 4 6
11 14 14 14 13 8 5 9 4 5 9 12 10 7 4 5 6 12 10 10 10 10 11 11 12 12 11 10 8 8 8 9 9 6 4 8 8 5 5 6 7 6 5 4 5 4 5 5 5
10 7 7 2 3 5 9 14 14 13 10 9 8 6 3 2 3 9 7 9 9 9 9 10 12 14 14 13 10 9 10 9 9 8 4 7 9 11 8 9 7 6 4 5 4 3 4 5 5
13 12 11 10 11 10 13 16 13 15 16 15 9 2 5 2 4 6 4 6 7 8 7 8 9 12 14 11 9 8 8 8 10 8 6 7 9 9 13 5 6 5 4 6 4 6 5 5 6
11 11 13 14 7 12 12 17 20 19 18 18 3 7 5 3 3 5 6 4 5 3 4 6 9 11 12 10 10 9 9 9 8 8 9 8 5 10 8 5 6 7 7 9 6 6 8 6 7
11 14 13 14 15 16 19 21 22 20 5 10 9 4 0 1 2 5 5 6 5 6 3 5 7 10 11 10 11 9 8 10 11 10 8 9 8 2 2 5 5 7 6 9 7 7 4 6 4
12 11 13 16 18 18 20 18 19 18 10 10 7 6 3 6 3 5 7 9 9 7 5 6 6 8 10 14 11 12 7 8 8 9 5 4 7 8 8 9 7 6 1 3 4 3 4 4 3
10 16 15 17 17 13 16 16 20 2 8 13 12 12 12 3 4 1 6 6 8 9 6 8 7 9 10 15 14 16 13 9 9 10 9 4 3 9 8 19 7 7 9 13 7 6 6 7 6
12 13 15 17 19 20 19 11 6 6 12 3 7 12 7 2 3 7 7 8 10 12 8 5 7 8 10 12 14 13 14 13 11 10 11 7 6 6 2 11 11 9 5 5 9 14 12 8 8
9 15 16 20 17 12 14 18 11 14 18 16 14 13 14 12 10 10 11 10 12 15 17 16 9 8 11 13 16 17 16 16 14 15 10 4 6 7 4 10 3 7 4 4 6 11 11 11 10
13 14 10 6 9 11 23 13 17 23 22 22 19 18 20 21 14 15 17 14 13 14 13 13 18 15 11 12 14 16 17 17 15 14 10 9 8 4 15 8 3 0 6 0 4 12 8 8 8
13 10 7 15 13 18 16 11 5 14 16 19 19 21 20 18 20 23 23 21 17 12 13 12 14 13 17 9 11 12 14 9 10 13 10 9 7 6 12 11 1 3 1 3 5 5 6 7 7
10 10 12 11 14 16 10 13 7 15 16 9 14 9 8 7 7 8 8 9 16 8 10 8 9 7 10 14 9 9 11 12 12 16 12 6 6 5 8 8 9 9 9 7 8 5 7 7 6
15 11 8 7 10 16 13 17 11 22 15 8 12 16 15 14 13 15 15 14 14 17 4 3 3 5 10 8 7 9 10 11 11 13 16 14 10 12 13 14 9 8 8 7 7 6 7 6 4
11 10 13 11 8 11 16 9 18 19 13 16 14 12 11 10 13 13 15 13 14 15 11 6 4 8 8 9 12 7 9 12 11 9 12 14 15 13 13 11 11 10 8 8 7 7 7 6 6
4 10 9 7 10 10 11 14 15 13 13 2 4 13 8 10 13 13 6 8 7 18 10 12 9 11 15 6 8 11 6 8 9 9 8 14 14 11 11 9 9 9 9 8 7 6 6 6 7
Wind_Direction
293 277 242 268 253 229 262 60 12 32 6 6 354 59 96 69 99 145 212 269 104 102 121 130 115 112 118 122 125 123 124 132 139 146 152 154 153 155 155 153 157 157 149 149 149 147 147 140 129
299 301 270 277 257 271 29 354 40 18 7 323 303 58 59 31 98 135 243 126 102 119 150 123 108 112 119 119 124 125 131 136 143 151 158 160 160 158 165 163 168 172 165 156 159 160 157 155 143
268 268 288 235 259 265 54 54 14 358 8 355 46 59 51 38 48 111 98 104 104 113 104 117 117 115 125 130 136 138 138 141 151 160 164 166 165 166 175 175 180 181 179 178 177 180 168 160 158
257 255 238 294 281 11 37 56 341 341 63 24 6 90 70 33 42 73 68 134 142 118 113 125 128 131 144 150 153 151 153 157 164 169 172 171 175 180 181 184 189 196 196 193 197 197 193 189 196
238 224 349 288 285 296 67 40 322 340 18 13 342 97 78 37 6 32 174 145 124 123 127 139 144 157 167 169 168 163 163 167 173 178 178 180 183 184 185 190 201 209 208 210 206 200 208 216 226
236 216 236 259 223 49 71 21 352 316 54 38 350 50 95 72 12 339 344 126 95 131 144 148 159 166 178 179 178 172 173 175 179 182 185 188 190 192 193 199 209 212 219 222 223 215 211 218 223
251 256 249 268 108 140 100 24 338 346 339 43 346 309 66 45 1 332 338 317 348 110 134 168 168 156 156 175 195 183 179 180 182 181 187 193 199 204 205 209 211 216 220 222 226 229 227 227 228
246 270 275 273 276 92 78 346 91 323 66 323 360 8 38 23 346 334 344 335 314 297 151 157 142 161 139 262 217 188 184 176 180 186 193 199 207 213 214 210 216 220 223 227 224 221 223 227 233
259 263 260 282 197 85 94 330 113 75 284 77 34 15 18 351 344 341 305 303 302 4 330 275 142 156 150 205 212 193 181 179 175 189 203 210 233 215 217 212 222 206 215 222 229 236 237 236 237
262 264 32 20 28 17 34 11 3 327 233 241 150 14 354 339 335 319 328 326 333 347 358 357 88 180 200 163 150 202 199 244 189 192 179 186 223 233 230 209 203 198 206 213 221 229 235 245 256
241 339 33 58 28 12 347 296 55 296 285 39 18 342 340 327 305 301 312 323 342 350 346 359 355 38 358 330 162 200 163 133 238 213 200 185 189 228 249 238 184 188 205 215 212 219 222 234 234
219 13 342 61 55 329 297 5 304 306 304 27 354 338 325 312 331 340 340 360 354 1 352 351 354 7 2 350 321 187 223 172 195 209 190 102 328 261 233 234 205 188 211 204 223 215 217 217 227
90 117 284 102 217 257 0 280 279 295 294 68 310 305 320 318 339 351 5 15 16 356 1 346 354 355 346 335 326 327 329 317 109 143 183 142 183 223 266 280 288 281 246 190 221 238 269 217 217
42 287 205 174 220 239 250 284 287 254 237 218 290 301 321 334 316 357 18 18 359 12 354 9 347 323 309 308 316 315 306 298 293 214 195 183 177 158 182 225 279 280 307 285 322 331 316 309 275
259 252 207 214 205 269 19 278 287 210 185 249 269 287 350 315 352 46 23 4 14 3 7 356 330 346 341 319 307 304 293 285 265 255 238 195 149 177 197 164 251 265 256 244 274 280 286 318 311
236 230 240 178 187 154 190 288 345 185 198 247 270 283 316 276 29 52 10 22 17 16 7 353 347 331 331 330 316 297 286 291 290 265 257 151 145 189 162 189 213 231 231 230 232 244 263 265 266
208 269 354 145 201 160 244 284 305 306 283 282 272 255 214 317 26 67 7 29 20 28 13 359 352 350 337 321 311 298 289 279 276 279 274 167 170 188 207 199 187 181 247 235 229 239 227 264 277
346 343 331 310 315 335 314 297 297 308 294 280 293 261 118 42 47 64 3 30 22 32 18 7 2 346 334 322 305 292 271 261 275 253 270 244 183 175 200 208 154 184 220 256 230 228 235 225 260
319 320 308 294 346 327 303 301 302 298 286 272 308 104 91 92 34 57 26 10 19 36 39 30 10 354 339 338 329 320 303 293 254 264 225 252 237 190 175 191 174 187 215 233 237 243 249 257 247
302 301 306 328 343 328 307 296 285 280 6 69 65 39 83 169 11 17 356 353 17 352 49 63 35 10 341 341 324 291 279 282 286 297 237 225 220 111 298 182 218 195 209 225 210 219 257 288 285
305 335 338 315 317 305 295 308 308 297 127 125 148 150 227 219 86 21 14 1 359 347 346 42 54 33 4 342 336 329 304 283 267 271 264 196 151 152 157 251 219 229 246 317 350 353 334 262 263
318 354 331 319 314 305 305 291 285 23 172 203 183 187 212 112 133 215 7 352 344 328 335 49 32 28 16 351 343 341 321 292 291 294 276 163 158 42 34 301 233 27 23 4 337 332 335 315 286
307 340 309 287 283 283 276 264 59 204 318 322 197 209 127 286 249 43 300 3 345 360 12 59 17 35 22 6 343 350 351 342 321 322 351 69 90 115 181 324 47 64 65 40 329 318 307 298 285
267 277 295 287 273 274 1 356 326 335 352 344 22 18 17 19 36 11 2 356 20 18 18 356 12 18 23 22 345 356 357 352 342 346 351 358 332 266 151 71 214 95 113 202 237 286 278 283 288
340 325 310 306 313 304 357 337 36 28 30 22 9 12 7 7 3 356 346 10 351 14 13 9 0 357 19 21 348 350 2 0 348 352 351 18 18 306 45 131 47 258 262 261 310 278 282 283 283
295 295 307 310 317 309 307 291 90 50 31 32 26 22 21 10 6 0 4 344 328 359 37 24 16 2 311 24 2 348 357 1 355 350 6 14 15 37 23 358 10 207 1 318 327 325 320 331 325
316 309 324 316 297 293 296 307 7 47 6 40 62 33 14 19 12 351 335 316 310 358 63 62 29 317 332 351 355 357 360 352 356 358 352 11 11 0 49 19 33 14 25 9 338 324 343 333 338
238 251 285 279 281 286 292 317 312 360 5 14 354 12 17 13 351 342 340 2 14 346 58 117 254 267 347 356 349 350 354 347 360 18 351 347 8 5 20 13 2 3 7 1 340 333 321 312 341
317 300 311 324 315 307 304 298 343 315 12 29 9 353 31 11 357 344 356 6 13 308 324 338 355 330 332 347 337 8 349 349 358 21 355 355 1 4 7 360 350 354 356 6 358 359 353 25 21
326 300 301 277 279 276 288 286 297 323 34 15 310 48 41 33 20 3 345 348 283 272 355 329 346 338 342 325 340 340 350 351 348 354 15 27 346 357 3 359 351 357 13 22 20 28 28 33 40